When you browse on this site, cookies collect data to enhance your experience and personalize the content and advertising you see.
Visit our Privacy Policy to learn more. By continuing to use the site, you agree to this use of cookies and data.
  • In Deutschland
  • Länderverzeichnis
  • Für 7 Tage
  • Wassertemperatur
  • Satellitenkarten
  • Wetterkarte
  • Widgets
  • user-avatar
    Anmelden

    Stündliche Wetter Victoria

    Heute, 26 März, Dienstag

    Zeit Temperatur Niederschläge Wind Luftdruck Luftfeuchtigkeit
    00:00 +11°C° 0 mm 3 m/S 750 mmHg 49%
    01:00 +11°C° 0 mm 3 m/S 750 mmHg 51%
    02:00 +10°C° 0 mm 3 m/S 750 mmHg 54%
    03:00 +10°C° 0 mm 3 m/S 751 mmHg 56%
    04:00 +10°C° 0 mm 3 m/S 751 mmHg 58%
    05:00 +10°C° 0 mm 3 m/S 751 mmHg 60%
    06:00 +10°C° 0 mm 3 m/S 752 mmHg 62%
    07:00 +10°C° 0 mm 4 m/S 752 mmHg 64%
    08:00 +12°C° 0 mm 4 m/S 752 mmHg 60%
    09:00 +14°C° 0 mm 5 m/S 752 mmHg 55%
    10:00 +16°C° 0 mm 5 m/S 753 mmHg 50%
    11:00 +17°C° 0 mm 5 m/S 753 mmHg 45%
    12:00 +19°C° 0 mm 4 m/S 753 mmHg 41%
    13:00 +21°C° 0 mm 4 m/S 753 mmHg 36%
    14:00 +21°C° 0 mm 4 m/S 753 mmHg 34%
    15:00 +22°C° 0 mm 3 m/S 753 mmHg 32%
    16:00 +22°C° 0 mm 3 m/S 752 mmHg 30%
    17:00 +21°C° 0 mm 3 m/S 753 mmHg 34%
    18:00 +19°C° 0 mm 3 m/S 753 mmHg 39%
    19:00 +17°C° 0 mm 3 m/S 754 mmHg 43%
    20:00 +16°C° 0 mm 2 m/S 754 mmHg 46%
    21:00 +15°C° 0 mm 2 m/S 755 mmHg 49%
    22:00 +14°C° 0 mm 2 m/S 755 mmHg 52%
    23:00 +14°C° 0 mm 2 m/S 755 mmHg 54%

    Morgen, 27 März, Mittwoch

    Zeit Temperatur Niederschläge Wind Luftdruck Luftfeuchtigkeit
    00:00 +13°C° 0 mm 2 m/S 755 mmHg 57%
    01:00 +13°C° 0 mm 2 m/S 755 mmHg 60%
    02:00 +12°C° 0 mm 2 m/S 755 mmHg 62%
    03:00 +12°C° 0 mm 2 m/S 755 mmHg 65%
    04:00 +10°C° 0 mm 2 m/S 755 mmHg 68%
    05:00 +10°C° 0 mm 2 m/S 756 mmHg 70%
    06:00 +10°C° 0 mm 2 m/S 756 mmHg 71%
    07:00 +10°C° 0 mm 2 m/S 756 mmHg 73%
    08:00 +13°C° 0 mm 2 m/S 756 mmHg 63%
    09:00 +16°C° 0 mm 2 m/S 756 mmHg 52%
    10:00 +18°C° 0 mm 2 m/S 756 mmHg 42%
    11:00 +20°C° 0 mm 2 m/S 755 mmHg 36%
    12:00 +23°C° 0 mm 2 m/S 755 mmHg 31%
    13:00 +25°C° 0 mm 2 m/S 754 mmHg 26%
    14:00 +25°C° 0 mm 1 m/S 754 mmHg 25%
    15:00 +25°C° 0 mm 1 m/S 753 mmHg 24%
    16:00 +26°C° 0 mm 1 m/S 753 mmHg 23%
    17:00 +24°C° 0 mm 1 m/S 753 mmHg 26%
    18:00 +22°C° 0 mm 1 m/S 753 mmHg 30%
    19:00 +20°C° 0 mm 1 m/S 753 mmHg 33%
    20:00 +20°C° 0 mm 1 m/S 753 mmHg 35%
    21:00 +19°C° 0 mm 1 m/S 753 mmHg 37%
    22:00 +18°C° 0 mm 2 m/S 753 mmHg 39%
    23:00 +17°C° 0 mm 2 m/S 753 mmHg 42%

    übermorgen, 28 März, Donnerstag

    Zeit Temperatur Niederschläge Wind Luftdruck Luftfeuchtigkeit
    00:00 +17°C° 0 mm 2 m/S 753 mmHg 45%
    01:00 +16°C° 0 mm 2 m/S 752 mmHg 48%
    02:00 +16°C° 0 mm 3 m/S 752 mmHg 52%
    03:00 +16°C° 0 mm 3 m/S 752 mmHg 56%
    04:00 +16°C° 0 mm 3 m/S 752 mmHg 61%
    05:00 +16°C° 0 mm 3 m/S 752 mmHg 64%
    06:00 +15°C° 0 mm 4 m/S 752 mmHg 68%
    07:00 +15°C° 0 mm 4 m/S 752 mmHg 72%
    08:00 +17°C° 0 mm 4 m/S 752 mmHg 66%
    09:00 +19°C° 0 mm 4 m/S 752 mmHg 61%
    10:00 +21°C° 0 mm 5 m/S 752 mmHg 55%
    11:00 +23°C° 0 mm 4 m/S 751 mmHg 50%
    12:00 +26°C° 0 mm 4 m/S 750 mmHg 46%
    13:00 +28°C° 0 mm 4 m/S 749 mmHg 42%
    14:00 +28°C° 0 mm 3 m/S 748 mmHg 44%
    15:00 +27°C° 0 mm 2 m/S 748 mmHg 46%
    16:00 +27°C° 0 mm 1 m/S 747 mmHg 48%
    17:00 +26°C° 0 mm 2 m/S 747 mmHg 51%
    18:00 +25°C° 0 mm 2 m/S 747 mmHg 54%
    19:00 +24°C° 0 mm 2 m/S 747 mmHg 56%
    20:00 +23°C° 0 mm 1 m/S 747 mmHg 54%
    21:00 +22°C° 0 mm 1 m/S 747 mmHg 52%
    22:00 +21°C° 0 mm 1 m/S 747 mmHg 50%
    23:00 +21°C° 0 mm 1 m/S 747 mmHg 49%

    29 März, Freitag

    Zeit Temperatur Niederschläge Wind Luftdruck Luftfeuchtigkeit
    00:00 +20°C° 0 mm 1 m/S 747 mmHg 47%
    01:00 +20°C° 0 mm 1 m/S 746 mmHg 46%
    02:00 +19°C° 0 mm 1 m/S 746 mmHg 45%
    03:00 +19°C° 0 mm 1 m/S 746 mmHg 45%
    04:00 +18°C° 0 mm 1 m/S 745 mmHg 44%
    05:00 +18°C° 0 mm 1 m/S 745 mmHg 47%
    06:00 +16°C° 0 mm 1 m/S 746 mmHg 49%
    07:00 +16°C° 0 mm 1 m/S 746 mmHg 51%
    08:00 +19°C° 0 mm 1 m/S 746 mmHg 45%
    09:00 +22°C° 0 mm 1 m/S 746 mmHg 39%
    10:00 +24°C° 0 mm 1 m/S 745 mmHg 34%
    11:00 +25°C° 0 mm 3 m/S 745 mmHg 32%
    12:00 +26°C° 0 mm 4 m/S 745 mmHg 30%
    13:00 +27°C° 0 mm 5 m/S 744 mmHg 29%
    14:00 +26°C° 0 mm 6 m/S 744 mmHg 36%
    15:00 +23°C° 0 mm 6 m/S 744 mmHg 44%
    16:00 +21°C° 0 mm 7 m/S 744 mmHg 51%
    17:00 +20°C° 0 mm 6 m/S 744 mmHg 53%
    18:00 +19°C° 0 mm 6 m/S 745 mmHg 55%
    19:00 +16°C° 0 mm 5 m/S 746 mmHg 57%
    20:00 +15°C° 0 mm 6 m/S 747 mmHg 57%
    21:00 +13°C° 0 mm 6 m/S 748 mmHg 56%
    22:00 +10°C° 0 mm 7 m/S 748 mmHg 56%
    23:00 +10°C° 0 mm 6 m/S 749 mmHg 55%

    30 März, Samstag

    Zeit Temperatur Niederschläge Wind Luftdruck Luftfeuchtigkeit
    00:00 +9°C° 0 mm 6 m/S 749 mmHg 54%
    01:00 +8°C° 0 mm 5 m/S 749 mmHg 53%
    02:00 +8°C° 0 mm 5 m/S 749 mmHg 56%
    03:00 +7°C° 0 mm 4 m/S 749 mmHg 59%
    04:00 +7°C° 0 mm 4 m/S 750 mmHg 62%
    05:00 +7°C° 0 mm 4 m/S 750 mmHg 64%
    06:00 +7°C° 0 mm 4 m/S 750 mmHg 65%
    07:00 +7°C° 0 mm 4 m/S 751 mmHg 67%
    08:00 +9°C° 0 mm 5 m/S 751 mmHg 60%
    09:00 +11°C° 0 mm 6 m/S 751 mmHg 54%
    10:00 +14°C° 0 mm 7 m/S 752 mmHg 47%
    11:00 +15°C° 0 mm 7 m/S 751 mmHg 45%
    12:00 +16°C° 0 mm 7 m/S 751 mmHg 42%
    13:00 +16°C° 0 mm 7 m/S 751 mmHg 39%
    14:00 +16°C° 0 mm 7 m/S 751 mmHg 39%
    15:00 +17°C° 0 mm 6 m/S 751 mmHg 39%
    16:00 +17°C° 0 mm 6 m/S 750 mmHg 39%
    17:00 +15°C° 0 mm 5 m/S 751 mmHg 43%
    18:00 +14°C° 0 mm 5 m/S 752 mmHg 48%
    19:00 +12°C° 0 mm 4 m/S 752 mmHg 52%
    20:00 +11°C° 0 mm 3 m/S 753 mmHg 56%
    21:00 +11°C° 0 mm 3 m/S 753 mmHg 59%
    22:00 +10°C° 0 mm 3 m/S 753 mmHg 63%
    23:00 +10°C° 0 mm 3 m/S 753 mmHg 65%

    31 März, Sonntag

    Zeit Temperatur Niederschläge Wind Luftdruck Luftfeuchtigkeit
    00:00 +9°C° 0 mm 2 m/S 753 mmHg 68%
    01:00 +9°C° 0 mm 2 m/S 753 mmHg 70%
    02:00 +8°C° 0 mm 2 m/S 753 mmHg 72%
    03:00 +8°C° 0 mm 2 m/S 753 mmHg 74%
    04:00 +8°C° 0 mm 2 m/S 753 mmHg 75%
    05:00 +8°C° 0 mm 2 m/S 753 mmHg 77%
    06:00 +9°C° 0 mm 1 m/S 753 mmHg 78%
    07:00 +8°C° 0 mm 1 m/S 754 mmHg 79%
    08:00 +10°C° 0 mm 2 m/S 754 mmHg 72%
    09:00 +13°C° 0 mm 3 m/S 754 mmHg 64%
    10:00 +16°C° 0 mm 3 m/S 754 mmHg 56%
    11:00 +17°C° 0 mm 4 m/S 754 mmHg 53%
    12:00 +18°C° 0 mm 4 m/S 753 mmHg 50%
    13:00 +19°C° 0 mm 4 m/S 753 mmHg 47%
    14:00 +19°C° 0 mm 4 m/S 753 mmHg 47%
    15:00 +20°C° 0 mm 4 m/S 753 mmHg 46%
    16:00 +20°C° 0 mm 5 m/S 753 mmHg 45%
    17:00 +18°C° 0 mm 4 m/S 753 mmHg 52%
    18:00 +16°C° 0 mm 3 m/S 753 mmHg 58%
    19:00 +14°C° 0 mm 3 m/S 754 mmHg 64%
    20:00 +13°C° 0 mm 3 m/S 754 mmHg 69%
    21:00 +12°C° 0 mm 3 m/S 755 mmHg 73%
    22:00 +11°C° 0 mm 3 m/S 755 mmHg 78%
    23:00 +11°C° 0 mm 3 m/S 755 mmHg 82%
    Mehr zeigen